Detroit Lakes, MN

7:21 PM CST on January 22, 2017 (GMT -0600)
Detroit Lakes

Weather History for KDTL - January, 2012

Change the Weather History Date:

Thursday, January 26, 2012

  Actual Average Record
Temperature  
Mean Temperature 28 °F -  
Max Temperature 33 °F 16 °F 49 °F (1973)
Min Temperature 23 °F -6 °F -36 °F (1997)
Degree Days  
Heating Degree Days 37    
Moisture  
Dew Point 26 °F    
Average Humidity 87    
Maximum Humidity 100    
Minimum Humidity 64    
Precipitation  
Precipitation 0.00 in - - ()
Sea Level Pressure  
Sea Level Pressure 29.69 in    
Wind  
Wind Speed 10 mph (WNW)    
Max Wind Speed 23 mph    
Max Gust Speed 30 mph    
Visibility 10 miles    
Events      
Averages and records for this station are not official NWS values.
T = Trace of Precipitation, MM = Missing Value Source: NWS Daily Summary

Daily Weather History Graph

Daily Weather History Graph

Search for Another Location

Airport or City:

Trip Planner

Search our weather history database for the weather conditions in past years. The results will help you decide how hot, cold, wet, or windy it might be!

Date:

Astronomy

Jan. 26, 2012 Rise Set
Actual Time 7:55 AM CST 5:17 PM CST
Civil Twilight 7:22 AM CST 5:50 PM CST
Nautical Twilight 6:45 AM CST 6:27 PM CST
Astronomical Twilight 6:09 AM CST 7:02 PM CST
Moon 9:06 AM CST (1/26) 9:30 PM CST (1/26)
Length of Visible Light 10h 27m
Length of Day
9h 21m
Waxing Crescent, 12% of the Moon is Illuminated
Jan 26
Waxing Crescent
Jan 30
First Quarter
Feb 7
Full
Feb 14
Last Quarter
Feb 21
New

Hourly Weather History & Observations

Time (CST) Temp. Windchill Dew Point Humidity Pressure Visibility Wind Dir Wind Speed Gust Speed Precip Events Conditions
12:13 AM 28.4 °F 20.4 °F 26.6 °F 93% 29.64 in 10.0 mi South 8.1 mph - N/A   Clear
12:33 AM 26.6 °F 20.0 °F 24.8 °F 93% 29.63 in 10.0 mi SSE 5.8 mph - N/A   Clear
12:53 AM 24.8 °F 16.1 °F 23.0 °F 93% 29.63 in 7.0 mi SSE 8.1 mph - N/A   Clear
1:13 AM 24.8 °F 17.9 °F 24.8 °F 100% 29.63 in 7.0 mi South 5.8 mph - N/A   Clear
1:33 AM 24.8 °F 17.9 °F 24.8 °F 100% 29.62 in 7.0 mi SSE 5.8 mph - N/A   Clear
1:54 AM 23.0 °F 15.8 °F 23.0 °F 100% 29.62 in 7.0 mi South 5.8 mph - N/A   Clear
2:13 AM 24.8 °F 16.9 °F 23.0 °F 93% 29.63 in 10.0 mi South 6.9 mph - N/A   Clear
2:33 AM 24.8 °F 16.9 °F 24.8 °F 100% 29.63 in 7.0 mi SSE 6.9 mph - N/A   Clear
2:54 AM 24.8 °F 19.1 °F 24.8 °F 100% 29.63 in 10.0 mi SE 4.6 mph - N/A   Clear
3:13 AM 24.8 °F 17.9 °F 24.8 °F 100% 29.63 in 10.0 mi SSE 5.8 mph - N/A   Clear
3:33 AM 26.6 °F 21.2 °F 24.8 °F 93% 29.63 in 10.0 mi South 4.6 mph - N/A   Clear
3:54 AM 26.6 °F 21.2 °F 24.8 °F 93% 29.63 in 10.0 mi SSW 4.6 mph - N/A   Clear
4:13 AM 26.6 °F - 24.8 °F 93% 29.62 in 10.0 mi Calm Calm - N/A   Clear
4:33 AM 26.6 °F 22.6 °F 24.8 °F 93% 29.63 in 10.0 mi SSW 3.5 mph - N/A   Clear
4:54 AM 24.8 °F - 23.0 °F 93% 29.63 in 10.0 mi Calm Calm - N/A   Clear
5:13 AM 23.0 °F 15.8 °F 23.0 °F 100% 29.64 in 10.0 mi South 5.8 mph - N/A   Clear
5:33 AM 23.0 °F 17.0 °F 23.0 °F 100% 29.64 in 10.0 mi SSW 4.6 mph - N/A   Clear
5:53 AM 26.6 °F 19.1 °F 26.6 °F 100% 29.64 in 10.0 mi West 6.9 mph - N/A   Clear
6:13 AM 26.6 °F 22.6 °F 26.6 °F 100% 29.65 in 10.0 mi West 3.5 mph - N/A   Clear
6:33 AM 28.4 °F 20.4 °F 26.6 °F 93% 29.66 in 10.0 mi WNW 8.1 mph - N/A   Clear
6:54 AM 30.2 °F 20.8 °F 28.4 °F 93% 29.67 in 10.0 mi WNW 11.5 mph - N/A   Clear
7:13 AM 30.2 °F 19.8 °F 28.4 °F 93% 29.68 in 10.0 mi WNW 13.8 mph - N/A   Clear
7:34 AM 30.2 °F 21.3 °F 28.4 °F 93% 29.68 in 10.0 mi NW 10.4 mph - N/A   Clear
7:53 AM 30.2 °F 19.8 °F 28.4 °F 93% 29.68 in 10.0 mi NW 13.8 mph - N/A   Clear
8:14 AM 28.4 °F 17.0 °F 28.4 °F 100% 29.68 in 10.0 mi NW 15.0 mph 18.4 mph N/A   Clear
8:33 AM 30.2 °F 19.3 °F 28.4 °F 93% 29.68 in 10.0 mi NW 15.0 mph - N/A   Clear
8:53 AM 30.2 °F 19.3 °F 28.4 °F 93% 29.68 in 10.0 mi WNW 15.0 mph - N/A   Clear
9:14 AM 30.2 °F 18.9 °F 28.4 °F 93% 29.69 in 10.0 mi NW 16.1 mph - N/A   Clear
9:33 AM 32.0 °F 19.8 °F 28.4 °F 87% 29.69 in 10.0 mi NW 20.7 mph 25.3 mph N/A   Clear
9:53 AM 32.0 °F 20.1 °F 28.4 °F 87% 29.70 in 10.0 mi NW 19.6 mph 25.3 mph N/A   Clear
10:13 AM 32.0 °F 20.5 °F 28.4 °F 87% 29.71 in 10.0 mi NW 18.4 mph 29.9 mph N/A   Scattered Clouds
10:33 AM 32.0 °F 19.5 °F 28.4 °F 87% 29.71 in 10.0 mi NW 21.9 mph 27.6 mph N/A   Scattered Clouds
10:53 AM 32.0 °F 20.1 °F 28.4 °F 87% 29.72 in 10.0 mi NW 19.6 mph 26.5 mph N/A   Mostly Cloudy
11:13 AM 32.0 °F 20.1 °F 28.4 °F 87% 29.73 in 10.0 mi NW 19.6 mph 28.8 mph N/A   Overcast
11:33 AM 32.0 °F 20.1 °F 28.4 °F 87% 29.73 in 10.0 mi NW 19.6 mph 26.5 mph N/A   Scattered Clouds
11:53 AM 32.0 °F 19.2 °F 28.4 °F 87% 29.73 in 10.0 mi NW 23.0 mph 26.5 mph N/A   Clear
12:13 PM 32.0 °F 19.5 °F 28.4 °F 87% 29.73 in 10.0 mi NW 21.9 mph 26.5 mph N/A   Clear
12:33 PM 32.0 °F 20.1 °F 28.4 °F 87% 29.73 in 10.0 mi NW 19.6 mph 27.6 mph N/A   Clear
12:54 PM 32.0 °F 21.2 °F 30.2 °F 93% 29.74 in 10.0 mi NW 16.1 mph 25.3 mph N/A   Clear
1:13 PM 33.8 °F 22.2 °F 28.4 °F 81% 29.75 in 10.0 mi NW 20.7 mph 28.8 mph N/A   Clear
1:34 PM 33.8 °F 21.9 °F 28.4 °F 81% 29.75 in 10.0 mi NW 21.9 mph 26.5 mph N/A   Clear
1:53 PM 33.8 °F 23.2 °F 26.6 °F 75% 29.74 in 10.0 mi NW 17.3 mph 24.2 mph N/A   Clear
2:13 PM 33.8 °F 24.3 °F 26.6 °F 75% 29.75 in 10.0 mi NW 13.8 mph 25.3 mph N/A   Clear
2:34 PM 33.8 °F 23.9 °F 26.6 °F 75% 29.75 in 10.0 mi NW 15.0 mph 23.0 mph N/A   Clear
2:53 PM 33.8 °F 23.5 °F 24.8 °F 70% 29.75 in 10.0 mi NW 16.1 mph - N/A   Clear
3:13 PM 33.8 °F 23.2 °F 24.8 °F 70% 29.75 in 10.0 mi NW 17.3 mph 21.9 mph N/A   Clear
3:34 PM 33.8 °F 23.2 °F 24.8 °F 70% 29.75 in 10.0 mi WNW 17.3 mph 23.0 mph N/A   Clear
3:53 PM 33.8 °F 23.9 °F 23.0 °F 65% 29.75 in 10.0 mi WNW 15.0 mph - N/A   Clear
4:13 PM 32.0 °F 23.0 °F 23.0 °F 69% 29.75 in 10.0 mi WNW 11.5 mph 19.6 mph N/A   Clear
4:33 PM 32.0 °F 23.0 °F 23.0 °F 69% 29.75 in 10.0 mi WNW 11.5 mph 17.3 mph N/A   Clear
4:53 PM 32.0 °F 23.0 °F 23.0 °F 69% 29.75 in 10.0 mi WNW 11.5 mph - N/A   Clear
5:13 PM 32.0 °F 23.0 °F 21.2 °F 64% 29.75 in 10.0 mi WNW 11.5 mph - N/A   Clear
5:34 PM 30.2 °F 20.8 °F 21.2 °F 69% 29.75 in 10.0 mi WNW 11.5 mph - N/A   Clear
5:53 PM 30.2 °F 21.3 °F 21.2 °F 69% 29.75 in 10.0 mi West 10.4 mph - N/A   Clear
6:13 PM 30.2 °F 21.3 °F 21.2 °F 69% 29.75 in 10.0 mi West 10.4 mph - N/A   Clear
6:33 PM 30.2 °F 22.6 °F 21.2 °F 69% 29.75 in 10.0 mi West 8.1 mph - N/A   Clear
6:54 PM 30.2 °F 23.4 °F 19.4 °F 64% 29.75 in 10.0 mi West 6.9 mph - N/A   Clear
7:13 PM 28.4 °F 24.6 °F 19.4 °F 69% 29.75 in 10.0 mi WNW 3.5 mph - N/A   Clear
7:54 PM 24.8 °F 19.1 °F 19.4 °F 80% 29.75 in 10.0 mi SSW 4.6 mph - N/A   Clear
8:13 PM 26.6 °F 20.0 °F 19.4 °F 74% 29.75 in 10.0 mi SW 5.8 mph - N/A   Clear
8:33 PM 26.6 °F 19.1 °F 19.4 °F 74% 29.75 in 10.0 mi WSW 6.9 mph - N/A   Clear
8:54 PM 26.6 °F 18.2 °F 19.4 °F 74% 29.76 in 10.0 mi West 8.1 mph - N/A   Clear
9:13 PM 28.4 °F 20.4 °F 19.4 °F 69% 29.76 in 10.0 mi West 8.1 mph - N/A   Clear
9:33 PM 28.4 °F 20.4 °F 19.4 °F 69% 29.76 in 10.0 mi West 8.1 mph - N/A   Clear
9:53 PM 28.4 °F 22.2 °F 19.4 °F 69% 29.76 in 10.0 mi WSW 5.8 mph - N/A   Clear
10:13 PM 26.6 °F 20.0 °F 19.4 °F 74% 29.76 in 10.0 mi WSW 5.8 mph - N/A   Clear
10:33 PM 26.6 °F 20.0 °F 19.4 °F 74% - 10.0 mi WSW 5.8 mph - N/A   Clear
10:54 PM 21.2 °F 16.4 °F 17.6 °F 86% 29.76 in 10.0 mi SSW 3.5 mph - N/A   Clear
11:13 PM 21.2 °F 16.4 °F 17.6 °F 86% 29.75 in 10.0 mi SSW 3.5 mph - N/A   Clear
11:33 PM 21.2 °F 16.4 °F 17.6 °F 86% 29.75 in 10.0 mi South 3.5 mph - N/A   Clear
11:54 PM 17.6 °F 9.3 °F 17.6 °F 100% 29.76 in 10.0 mi SW 5.8 mph - N/A   Clear